Date,TemperatureHighF,TemperatureAvgF,TemperatureLowF,DewpointHighF,DewpointAvgF,DewpointLowF,HumidityHigh,HumidityAvg,HumidityLow,PressureMaxIn,PressureMinIn,WindSpeedMaxMPH,WindSpeedAvgMPH,GustSpeedMaxMPH,PrecipitationSumIn
2012-1-1,39.9,25.7,17.8,17.6,11.6,5.8,72,56,36,30.56,30.27,10,0,10,0.00
2012-1-2,51.6,32.0,15.6,25.8,17.3,8.7,75,57,36,30.55,30.24,4,0,4,0.00
2012-1-3,58.1,43.6,24.6,23.1,18.0,11.4,65,38,21,30.37,30.13,22,0,22,0.00
2012-1-4,60.1,38.0,21.7,26.1,18.0,10.7,63,47,26,30.37,30.26,4,0,4,0.00
2012-1-5,67.3,51.5,34.9,30.7,23.0,18.0,52,34,22,30.27,29.95,9,0,9,0.00
2012-1-6,55.4,39.1,22.8,26.1,19.8,15.0,73,48,26,30.13,29.94,12,0,12,0.00
2012-1-7,41.2,28.4,17.2,27.2,20.1,11.8,80,72,52,30.15,29.95,8,0,8,0.00
2012-1-8,43.3,26.7,14.7,24.9,15.8,9.4,81,65,40,30.21,30.12,6,0,6,0.04
2012-1-9,55.8,36.0,21.9,29.2,20.4,11.7,70,55,34,30.26,30.15,8,0,8,0.00
2012-1-10,63.0,44.1,28.4,31.1,21.8,13.6,71,45,22,30.15,29.85,12,0,12,0.00
2012-1-11,37.6,21.9,0.5,21.8,11.3,-6.2,75,64,38,30.16,29.87,15,1,15,0.00
2012-1-12,45.0,24.6,0.0,16.9,6.2,-6.5,75,48,29,30.12,30.00,6,0,6,0.04
2012-1-13,55.2,37.7,17.4,18.8,9.4,3.5,56,32,21,30.11,29.99,11,1,11,0.00
2012-1-14,59.2,45.0,28.2,21.1,13.8,6.1,46,29,20,30.15,29.93,21,1,21,0.00
2012-1-15,57.0,48.1,33.3,17.1,11.7,7.4,40,24,15,29.93,29.73,26,2,26,0.00
2012-1-16,49.1,28.6,14.0,19.1,14.6,7.6,79,59,22,30.05,29.69,11,1,11,0.00
2012-1-17,33.3,20.9,2.3,12.5,3.5,-4.2,79,51,29,30.14,30.00,16,2,16,0.00
2012-1-18,48.6,40.7,27.7,22.6,14.2,1.5,42,34,29,30.00,29.71,41,5,41,0.00
2012-1-19,65.5,53.7,44.4,33.3,27.7,21.7,42,37,29,29.84,29.64,25,5,25,0.00
2012-1-20,59.7,48.2,31.3,29.6,24.3,18.7,63,40,27,30.01,29.64,37,4,37,0.00
2012-1-21,55.4,40.7,26.2,32.2,24.5,18.4,73,54,32,29.94,29.37,17,1,17,0.00
2012-1-22,49.6,39.5,24.6,24.2,13.4,5.0,51,35,23,29.91,29.38,25,1,25,0.16
2012-1-23,48.9,32.0,21.9,22.1,14.4,8.4,60,49,32,29.94,29.84,6,0,6,0.00
2012-1-24,37.6,30.3,18.1,26.0,19.7,11.9,77,65,53,30.25,29.84,6,0,6,0.00
2012-1-25,66.4,39.7,17.2,29.0,18.0,10.9,78,48,19,30.19,29.96,19,1,19,0.00
2012-1-26,58.8,44.4,26.2,27.8,20.4,12.1,57,39,26,30.14,29.81,15,2,15,0.00
2012-1-27,46.2,31.4,17.8,21.6,16.8,8.0,74,56,34,30.29,29.80,17,1,17,0.00
2012-1-28,49.6,29.6,13.1,15.6,6.8,-99.9,74,45,20,30.27,30.13,21,-13,21,0.00
2012-1-29,63.1,47.5,33.6,24.7,16.1,5.6,44,29,22,30.19,30.02,14,2,14,0.00
2012-1-30,58.6,40.0,28.6,22.7,3.8,-99.9,52,30,22,30.02,29.86,21,-102,21,0.00
2012-1-31,50.9,37.2,25.5,21.1,15.5,9.4,55,42,30,30.11,29.95,8,0,8,0.00
2012-2-1,55.6,35.6,21.4,22.6,13.7,-99.9,62,43,14,30.18,30.06,7,-17,7,0.00
2012-2-2,48.4,28.4,26.8,26.2,-1.9,-99.9,80,45,31,30.12,29.94,16,-156,16,0.00
2012-2-3,35.2,20.1,27.5,32.0,-23.8,-99.9,82,48,50,30.35,30.12,8,-330,8,0.04
2012-2-4,36.0,21.6,16.9,24.1,-3.5,-99.9,82,60,57,30.41,30.33,6,-198,6,0.16
2012-2-5,34.7,12.0,13.3,19.7,-31.2,-99.9,78,46,53,30.36,30.17,6,-484,6,0.06
2012-2-6,43.5,21.1,14.2,22.9,-9.2,-99.9,79,51,38,30.28,30.08,9,-190,9,0.00
2012-2-7,24.6,14.4,16.9,18.3,-23.1,-99.9,80,51,71,30.36,30.23,3,-332,3,0.04
2012-2-8,30.2,15.3,8.4,20.0,-19.2,-99.9,78,51,59,30.23,30.08,5,-292,5,0.00
2012-2-9,48.4,31.2,21.9,25.7,18.0,12.9,70,59,40,30.20,30.11,8,0,8,0.00
2012-2-10,43.3,26.4,16.7,23.0,15.3,-99.9,80,65,43,30.27,30.12,9,-6,9,0.00
2012-2-11,21.6,14.3,7.3,13.2,6.1,-99.9,79,71,61,30.33,30.10,86,-4,86,0.02
2012-2-12,13.6,8.8,6.6,8.0,3.0,0.6,78,77,76,30.10,29.93,0,0,0,0.00
2012-2-13,47.1,31.0,19.6,31.7,22.5,13.4,83,71,50,29.84,29.70,8,0,11,0.00
2012-2-14,47.5,32.5,23.2,28.6,22.7,17.3,79,68,45,29.86,29.72,7,0,57,0.00
2012-2-15,37.8,27.5,21.0,25.2,18.5,-99.9,82,73,59,30.14,29.85,10,-13,10,0.00
2012-2-16,45.7,26.5,19.0,26.0,7.3,-99.9,77,59,44,30.18,30.06,10,-93,10,0.00
2012-2-17,45.5,34.2,24.1,22.0,15.4,8.0,77,48,31,30.18,30.04,11,0,11,0.00
2012-2-18,44.4,29.4,16.0,23.5,17.8,9.7,78,63,39,30.14,29.90,7,0,7,0.00
2012-2-19,46.9,33.8,22.8,23.8,19.4,13.1,72,57,38,29.91,29.66,11,0,11,0.00
2012-2-20,45.3,22.6,25.5,24.4,-29.3,-99.9,82,32,26,29.91,29.70,21,-439,21,0.08
2012-2-21,54.7,39.4,27.7,23.3,9.3,-99.9,44,34,28,29.90,29.72,23,-58,23,0.00
2012-2-22,61.2,51.2,43.5,32.5,26.9,22.1,65,40,29,29.78,29.52,63,7,63,0.00
2012-2-23,44.1,26.7,19.0,34.2,-2.4,-99.9,81,45,29,30.07,29.54,24,-151,24,0.12
2012-2-24,44.2,29.5,16.9,18.4,11.6,4.2,66,48,32,30.16,30.06,12,1,12,0.00
2012-2-25,65.1,39.5,17.4,29.2,14.9,8.7,72,42,18,30.10,29.66,16,2,16,0.00
2012-2-26,43.5,33.8,18.3,9.5,3.1,-3.4,48,28,18,30.20,29.88,16,2,16,0.00
2012-2-27,50.7,30.8,14.7,18.6,7.8,-99.9,57,40,27,30.20,29.84,7,-27,7,0.00
2012-2-28,47.1,33.7,22.6,29.2,17.7,8.6,67,54,30,29.86,29.59,13,1,13,0.00
2012-2-29,55.6,42.6,29.7,18.5,13.2,5.6,40,31,21,29.89,29.75,25,3,25,0.00
2012-3-1,42.6,35.3,24.6,26.3,20.6,14.4,75,56,37,29.85,29.72,15,2,15,0.00
2012-3-2,39.0,26.1,16.3,17.1,9.6,1.4,76,51,34,30.04,29.85,9,0,9,0.00
2012-3-3,49.1,35.3,15.6,17.9,11.0,0.0,53,38,27,30.05,29.94,18,2,18,0.00
2012-3-4,65.8,51.3,39.0,25.6,18.2,-99.9,40,29,20,30.16,29.96,20,-5,20,0.00
2012-3-5,70.5,50.6,27.3,26.0,17.7,9.9,54,29,16,30.14,29.84,32,2,32,0.00
2012-3-6,75.0,55.8,37.2,25.3,14.9,9.6,34,22,12,29.84,29.53,18,1,18,0.00
2012-3-7,47.1,30.4,23.4,26.2,22.9,17.8,80,74,38,30.23,29.70,9,1,9,0.00
2012-3-8,51.1,35.1,20.5,23.3,15.2,6.5,72,47,23,30.46,30.23,8,0,8,0.00
2012-3-9,64.2,43.2,25.5,22.7,14.0,8.8,51,33,17,30.44,30.16,9,0,9,0.00
2012-3-10,71.4,47.3,25.5,31.9,19.6,7.8,63,36,18,30.17,29.89,9,0,9,0.00
2012-3-11,67.8,49.3,36.0,34.4,23.7,9.9,74,41,17,29.90,29.70,17,1,17,0.08
2012-3-12,69.6,44.3,43.3,25.1,-5.9,-99.9,33,20,17,30.00,29.73,20,-228,20,0.00
2012-3-13,60.6,24.8,36.5,24.5,-12.9,-99.9,39,18,12,29.99,29.84,19,-287,19,0.00
2012-3-14,75.2,58.4,41.0,21.5,12.9,-99.9,30,18,12,30.06,29.90,16,-12,16,0.00
2012-3-15,72.5,58.5,44.4,29.9,21.4,13.6,39,24,19,30.16,30.03,8,1,8,0.00
2012-3-16,78.6,56.6,37.6,32.8,20.6,-99.9,51,29,16,30.04,29.84,18,-19,18,0.00
2012-3-17,77.4,58.0,38.5,32.5,21.8,14.4,39,26,16,29.87,29.64,8,-10,8,0.00
2012-3-18,70.7,52.9,37.2,29.2,21.8,15.3,43,31,19,29.69,29.40,38,3,38,0.00
2012-3-19,53.4,41.2,35.4,16.0,4.1,-99.9,36,24,15,29.76,29.54,19,-50,19,0.00
2012-3-20,55.2,38.2,22.1,21.4,7.4,-99.9,52,33,23,30.04,29.75,8,-77,8,0.00
2012-3-21,66.9,46.4,25.7,28.6,18.1,7.0,47,34,23,30.07,29.97,14,1,14,0.00
2012-3-22,71.2,51.5,30.9,30.8,24.2,17.1,59,37,19,30.07,29.92,10,1,10,0.00
2012-3-23,79.0,54.9,32.0,33.2,25.1,-99.9,58,36,17,30.06,29.96,10,1,10,0.00
2012-3-24,76.8,56.1,34.9,35.9,27.5,16.9,58,35,21,30.18,30.04,10,1,10,0.00
2012-3-25,72.5,52.7,34.9,42.9,35.1,26.4,74,54,31,30.19,29.95,57,0,57,0.00
2012-3-26,82.9,56.2,38.3,41.1,26.9,-99.9,68,39,12,29.95,29.60,39,-4,39,0.00
2012-3-27,76.3,57.9,41.5,26.9,20.6,13.7,38,24,15,30.06,29.83,16,2,16,0.00
2012-3-28,76.8,55.1,34.2,33.7,24.1,16.6,50,32,17,30.06,29.88,11,1,11,0.00
2012-3-29,76.1,62.0,49.3,34.4,24.8,16.5,35,25,16,30.00,29.88,13,1,13,0.00
2012-3-30,79.9,61.7,38.5,35.3,26.7,17.3,43,28,19,29.97,29.87,13,1,13,0.00
2012-3-31,83.5,63.1,43.0,38.9,30.2,22.8,47,31,19,30.00,29.75,15,1,15,0.00
2012-4-1,84.6,65.7,43.9,35.8,25.3,19.4,39,24,14,29.76,29.50,15,1,15,0.00
2012-4-2,58.3,46.1,36.7,31.6,27.9,18.6,76,50,25,30.20,29.55,14,2,14,0.08
2012-4-3,40.8,32.4,33.1,32.3,11.9,-99.9,79,63,59,30.24,30.11,6,-138,6,0.22
2012-4-4,65.3,44.0,32.9,41.0,26.3,-99.9,82,59,38,30.11,29.89,11,-55,11,0.00
2012-4-5,73.6,51.2,31.8,41.6,31.2,-99.9,79,54,30,29.96,29.84,61,-22,61,0.00
2012-4-6,77.4,44.9,33.6,44.1,9.8,-99.9,78,40,14,30.03,29.68,26,-108,26,0.00
2012-4-7,63.5,49.8,36.1,22.2,17.0,6.8,45,28,19,30.29,30.03,21,2,21,0.00
2012-4-8,73.9,52.7,29.8,29.7,20.5,14.6,54,32,16,30.29,30.16,13,1,13,0.00
2012-4-9,69.1,50.3,31.3,32.1,24.1,14.0,52,37,25,30.24,30.13,12,1,12,0.00
2012-4-10,76.8,56.0,31.1,43.7,33.7,22.6,72,46,27,30.19,30.02,9,1,9,0.00
2012-4-11,69.3,54.8,43.7,48.4,40.9,-99.9,79,62,45,30.12,29.83,11,-13,11,0.22
2012-4-12,71.2,55.5,41.2,46.5,34.7,21.1,81,51,23,29.87,29.73,16,1,16,0.00
2012-4-13,68.7,54.3,39.9,32.8,25.3,20.0,63,35,18,29.88,29.76,16,2,16,0.00
2012-4-14,65.1,48.0,35.2,35.2,29.2,-99.9,81,51,30,29.80,29.60,10,-6,10,0.26
2012-4-15,57.9,44.8,35.8,38.8,30.9,24.9,84,61,33,30.05,29.66,13,1,13,0.10
2012-4-16,63.7,44.7,29.7,36.5,23.0,-99.9,82,51,27,30.17,30.05,10,-44,10,0.00
2012-4-17,55.0,26.0,32.0,33.5,-12.0,-99.9,64,28,23,30.17,30.04,12,-308,12,0.00
2012-4-18,69.8,21.3,35.8,41.5,-42.3,-99.9,68,25,33,30.15,29.91,8,-583,8,0.00
2012-4-19,65.8,18.2,42.4,40.3,-58.6,-99.9,75,17,35,30.14,29.96,10,-732,10,0.00
2012-4-20,59.5,12.2,41.5,36.7,-53.2,-99.9,70,17,27,30.20,30.06,4,-671,4,0.00
2012-4-21,76.3,60.0,40.8,42.2,35.5,26.9,68,42,28,30.29,30.06,12,1,12,0.00
2012-4-22,77.0,56.6,37.9,45.1,33.4,-99.9,76,47,28,30.31,30.20,10,-27,10,0.00
2012-4-23,84.4,42.0,36.7,44.4,-4.4,-99.9,72,33,22,30.23,30.05,13,-313,13,0.00
2012-4-24,61.5,7.5,54.9,33.9,-83.0,-99.9,41,5,34,30.05,29.91,57,-907,57,0.00
2012-4-25,55.6,9.3,49.1,32.3,-81.6,-99.9,42,6,37,30.08,29.93,57,-853,57,0.00
2012-4-26,-200.0,0.0,200.0,-99.9,-99.9,-99.9,61,1,61,30.07,29.72,0,-999,0,0.00
2012-4-27,55.0,14.8,45.7,24.8,-79.2,-99.9,81,15,31,29.96,29.72,26,-703,26,0.02
2012-4-28,60.6,29.5,39.0,29.1,-26.5,-99.9,49,22,25,30.02,29.91,24,-406,24,0.00
2012-4-29,66.2,37.0,30.6,36.7,0.4,-99.9,73,41,31,30.08,29.97,7,-235,7,0.00
2012-4-30,80.2,43.2,34.9,36.3,-4.5,-99.9,59,28,17,30.08,29.84,15,-257,15,0.00
2012-5-1,65.5,11.3,56.8,36.8,-75.0,-99.9,48,8,29,29.89,29.77,8,-804,8,0.00
2012-5-2,74.8,34.1,50.5,41.4,-25.1,-99.9,57,26,30,29.99,29.85,10,-511,10,0.00
2012-5-3,82.9,59.3,45.5,46.8,26.2,-99.9,63,38,22,30.04,29.87,8,-90,8,0.00
2012-5-4,88.2,41.2,52.7,40.4,-25.6,-99.9,46,20,17,29.98,29.88,9,-423,9,0.00
2012-5-5,84.9,55.0,44.2,50.6,11.9,-99.9,52,27,17,30.13,29.87,14,-228,14,0.00
2012-5-6,61.0,44.6,38.5,38.7,18.2,-99.9,81,47,21,30.29,30.13,12,-78,12,0.31
2012-5-7,50.4,44.7,39.0,41.5,37.5,33.7,84,76,64,30.34,30.22,10,0,10,0.35
2012-5-8,66.0,51.4,33.1,38.8,34.4,28.3,83,56,34,30.27,30.14,12,0,12,0.00
2012-5-9,80.4,60.0,38.8,44.5,34.8,29.7,70,43,21,30.19,29.97,9,0,9,0.00
2012-5-10,88.9,67.7,44.2,43.6,34.4,25.6,58,32,16,30.07,29.83,15,1,15,0.00
2012-5-11,57.4,44.7,38.8,36.8,31.9,25.9,82,62,46,30.33,30.06,10,1,10,0.10
2012-5-12,54.0,43.4,37.2,42.2,36.9,32.2,85,78,63,30.35,30.28,7,0,7,0.04
2012-5-13,64.2,50.5,37.0,46.0,39.9,33.1,87,69,44,30.33,30.26,7,0,7,0.02
2012-5-14,79.2,60.4,39.4,40.8,31.4,25.7,69,39,17,30.30,30.17,10,0,10,0.00
2012-5-15,82.0,64.4,43.7,41.1,32.3,19.0,48,32,18,30.28,30.14,8,1,8,0.00
2012-5-16,81.1,62.9,43.0,46.8,36.5,29.0,61,39,21,30.17,29.98,18,1,18,0.00
2012-5-17,82.6,65.9,48.9,46.5,38.6,32.9,57,39,23,29.98,29.86,15,1,15,0.00
2012-5-18,84.4,66.1,47.5,46.6,38.8,32.3,59,39,22,29.87,29.70,16,-20,16,0.00
2012-5-19,59.4,39.2,43.3,46.6,2.0,-99.9,78,48,47,30.21,29.85,7,-302,7,0.16
2012-5-20,75.4,55.5,38.5,47.1,34.8,-99.9,82,53,34,30.25,30.18,9,-44,9,0.00
2012-5-21,84.4,45.7,40.8,49.2,3.5,-99.9,77,34,24,30.24,30.06,72,-264,72,0.00
2012-5-22,93.2,55.5,57.0,47.6,-6.8,-99.9,42,16,14,30.06,29.73,17,-399,17,0.00
2012-5-23,70.0,49.7,45.5,47.3,22.6,-99.9,84,50,27,29.83,29.73,9,-152,9,0.43
2012-5-24,70.9,57.3,43.5,43.2,35.7,30.2,85,48,26,29.96,29.73,14,1,14,0.00
2012-5-25,71.4,54.8,46.6,47.4,36.1,-99.9,74,56,42,29.97,29.84,7,-27,7,0.00
2012-5-26,85.1,68.5,46.9,57.2,46.8,27.5,82,52,15,29.92,29.57,19,1,19,0.00
2012-5-27,73.9,62.7,44.4,28.3,21.8,12.7,35,21,16,29.97,29.73,18,2,18,0.00
2012-5-28,78.4,61.1,41.2,35.1,29.4,21.2,51,32,20,30.11,29.94,13,1,13,0.00
2012-5-29,79.7,61.2,37.8,41.1,33.9,25.0,64,38,22,30.21,30.03,9,0,9,0.00
2012-5-30,86.2,62.0,46.6,44.3,29.4,-99.9,61,36,17,30.17,29.98,11,-51,11,0.00
2012-5-31,73.2,59.6,42.3,45.1,39.2,33.1,70,49,34,30.22,30.08,9,0,9,0.00
2012-6-1,81.5,66.0,46.9,52.0,43.8,36.8,70,47,31,30.09,29.99,12,0,12,0.00
2012-6-2,81.1,57.8,49.1,52.3,31.2,-99.9,78,48,35,30.09,29.94,8,-108,8,0.22
2012-6-3,85.6,66.3,50.9,60.9,46.5,-99.9,75,53,31,30.10,29.95,7,-20,7,0.08
2012-6-4,94.3,72.6,50.5,54.9,44.2,-99.9,69,41,20,30.14,30.01,15,-20,15,0.00
2012-6-5,88.5,71.2,52.7,54.1,47.0,40.4,64,44,28,30.06,29.84,19,1,19,0.00
2012-6-6,83.7,70.2,52.2,57.9,47.7,40.5,66,46,31,30.02,29.88,13,1,13,0.00
2012-6-7,82.8,68.5,59.5,59.3,49.5,-99.9,79,55,39,30.15,29.97,14,-27,14,0.02
2012-6-8,93.0,74.9,52.5,57.2,47.5,-99.9,77,43,19,30.15,29.81,8,-6,8,0.00
2012-6-9,95.4,71.4,53.6,45.3,25.8,-99.9,49,25,15,29.82,29.63,13,-100,13,0.00
2012-6-10,82.6,67.3,56.3,42.5,26.4,-99.9,40,25,11,30.10,29.68,24,-18,24,0.00
2012-6-11,78.6,63.5,42.1,37.3,30.7,16.4,50,30,20,30.24,30.09,12,1,12,0.00
2012-6-12,86.4,67.0,45.0,44.0,35.9,27.0,51,33,20,30.20,30.04,9,1,9,0.00
2012-6-13,94.1,73.3,49.3,46.8,35.9,27.8,46,28,15,30.08,29.85,7,1,11,0.00
2012-6-14,84.7,70.9,53.4,49.1,39.5,24.8,42,32,26,30.07,29.88,15,0,15,0.00
2012-6-15,87.6,63.0,57.0,54.1,29.9,-99.9,67,39,22,30.12,29.95,20,-124,20,0.00
2012-6-16,79.0,54.3,58.3,53.8,10.7,-99.9,57,36,39,30.28,30.10,68,-237,68,0.00
2012-6-17,97.0,76.1,49.8,52.6,41.0,33.7,65,34,14,30.11,29.83,15,1,15,0.00
2012-6-18,100.4,82.3,57.0,49.3,36.0,-99.9,44,23,13,29.86,29.73,16,-16,16,0.00
2012-6-19,94.8,83.4,62.4,48.3,39.6,26.9,39,22,14,29.85,29.74,11,1,11,0.00
2012-6-20,77.4,66.1,56.8,51.5,43.7,28.3,71,46,25,30.29,29.85,7,0,7,0.00
2012-6-21,87.4,45.6,58.3,51.8,-7.7,-99.9,53,26,28,30.29,30.04,7,-380,7,0.00
2012-6-22,100.0,55.7,61.3,57.1,-8.6,-99.9,59,18,14,30.07,29.82,10,-385,10,0.00
2012-6-23,92.7,30.8,58.8,47.0,-35.3,-99.9,34,12,16,29.99,29.86,4,-609,4,0.00
2012-6-24,73.8,10.6,57.9,56.8,-28.1,-99.9,48,14,18,30.15,29.98,19,-518,19,0.00
2012-6-25,101.1,74.6,64.9,56.9,29.4,-99.9,47,25,17,30.16,29.94,7,-133,7,0.00
2012-6-26,102.0,82.0,61.7,58.3,41.9,-99.9,46,28,19,29.99,29.89,19,-24,19,0.00
2012-6-27,93.0,33.4,63.3,55.0,-29.6,-99.9,64,21,25,30.15,29.93,11,-581,11,0.04
2012-6-28,63.3,12.5,58.1,58.5,-47.0,-99.9,66,20,25,30.19,30.10,57,-747,57,0.00
2012-6-29,73.8,1.3,73.8,54.2,-70.2,-99.9,31,5,24,30.15,30.05,8,-831,8,0.00
2012-6-30,95.2,35.7,69.6,53.9,-34.2,-99.9,39,13,21,30.11,30.01,12,-610,12,0.00
2012-7-1,81.5,19.0,59.7,57.2,-47.0,-99.9,49,13,17,30.08,29.93,7,-652,7,0.00
2012-7-2,97.0,57.7,62.2,59.9,7.1,-99.9,73,29,26,30.17,30.01,27,-329,27,0.18
2012-7-3,94.3,60.7,61.0,60.3,18.4,-99.9,68,39,29,30.13,29.97,7,-217,7,0.02
2012-7-4,79.3,22.0,57.0,56.9,-13.3,-99.9,65,23,23,30.05,29.97,8,-538,8,0.00
2012-7-5,95.5,56.4,69.1,65.0,3.3,-99.9,68,32,35,30.10,29.98,9,-411,9,0.00
2012-7-6,85.3,50.1,59.4,60.0,1.0,-99.9,81,41,40,30.32,30.05,8,-375,8,0.20
2012-7-7,81.5,66.2,59.5,63.3,56.5,-99.9,88,73,49,30.35,30.24,19,-10,19,0.80
2012-7-8,78.1,55.9,60.4,62.5,28.3,-99.9,89,61,55,30.35,30.30,7,-214,7,0.04
2012-7-9,82.2,69.8,61.2,63.2,59.2,54.7,89,71,46,30.37,30.27,0,0,0,0.37
2012-7-10,84.4,71.4,56.5,61.7,55.1,49.0,83,58,37,30.33,30.19,5,0,5,0.00
2012-7-11,88.3,73.5,54.5,59.9,52.2,46.7,77,50,28,30.24,30.13,6,0,6,0.00
2012-7-12,92.3,76.7,57.4,58.6,51.9,45.4,66,44,29,30.21,30.14,8,0,8,0.00
2012-7-13,93.9,78.0,60.8,57.8,50.4,44.7,57,40,23,30.23,30.14,6,0,6,0.00
2012-7-14,93.7,74.9,59.2,57.2,46.9,-99.9,58,41,26,30.21,30.09,8,-27,8,0.00
2012-7-15,83.8,17.1,62.4,58.7,-48.0,-99.9,59,14,31,30.13,30.02,3,-704,3,0.00
2012-7-16,93.0,56.4,60.6,60.9,6.8,-99.9,73,32,30,30.16,30.02,13,-325,13,0.06
2012-7-17,82.6,32.7,57.0,55.7,-30.6,-99.9,74,27,43,30.13,30.00,8,-613,8,0.00
2012-7-18,80.4,26.6,60.4,55.1,-17.0,-99.9,60,26,25,30.18,30.11,0,-534,0,0.00
2012-7-19,84.6,34.4,60.6,55.5,-2.5,-99.9,54,27,22,30.24,30.15,0,-373,0,0.00
2012-7-20,81.1,27.7,61.2,59.4,17.5,-99.9,54,30,20,30.25,30.14,6,-378,6,0.00
2012-7-21,75.0,17.7,63.7,55.5,-60.1,-99.9,49,12,29,30.25,30.12,0,-683,0,0.00
2012-7-22,-200.0,0.0,200.0,-99.9,-99.9,-99.9,0,0,100,30.26,30.15,0,-999,0,0.00
2012-7-23,-200.0,0.0,200.0,-99.9,-99.9,-99.9,81,1,81,30.22,29.78,0,-999,0,0.00
2012-7-24,94.8,24.0,70.3,58.7,-63.5,-99.9,56,11,30,29.92,29.75,8,-852,8,0.00
2012-7-25,70.9,11.4,59.4,54.4,-79.4,-99.9,74,9,55,29.96,29.79,0,-869,0,0.08
2012-7-26,60.1,10.1,55.8,52.5,-81.0,-99.9,77,9,72,30.02,29.91,0,-902,0,0.00
2012-7-27,58.3,0.8,57.9,-99.9,-99.9,-99.9,0,0,100,30.03,29.93,0,-984,0,0.00
2012-7-28,-200.0,0.0,200.0,55.6,-83.0,-99.9,36,4,29,30.06,29.91,2,-868,2,0.00
2012-7-29,91.9,23.7,50.0,60.6,-53.1,-99.9,54,15,31,29.95,29.86,32,-759,32,0.00
2012-7-30,90.3,29.1,63.7,64.3,-32.0,-99.9,81,32,36,29.97,29.87,7,-608,7,0.37
2012-7-31,96.1,75.8,57.0,64.3,56.9,50.5,80,55,29,29.93,29.80,10,0,10,0.00
2012-8-1,96.1,75.0,64.9,61.6,55.7,50.0,78,53,30,29.90,29.80,18,-7,18,0.16
2012-8-2,88.9,73.9,59.7,58.5,51.4,44.7,71,47,33,29.86,29.71,14,1,14,0.00
2012-8-3,94.8,67.2,58.6,56.2,23.7,-99.9,62,29,19,29.86,29.67,13,-159,13,0.00
2012-8-4,82.2,44.1,58.3,51.5,-3.7,-99.9,58,33,32,30.00,29.85,6,-346,6,0.00
2012-8-5,92.5,72.3,51.3,58.4,49.6,42.8,75,47,27,30.01,29.87,6,0,6,0.00
2012-8-6,95.2,80.2,60.1,58.5,48.7,41.5,58,34,24,30.02,29.88,17,0,17,0.00
2012-8-7,96.3,62.9,58.3,58.0,17.9,-99.9,64,32,22,29.97,29.89,57,-246,57,0.00
2012-8-8,95.7,76.9,57.6,53.7,42.7,-99.9,45,31,20,30.01,29.91,8,-14,8,0.00
2012-8-9,87.4,72.0,54.0,55.7,45.1,-99.9,57,40,32,30.02,29.86,5,-24,5,0.00
2012-8-10,87.3,31.8,62.8,53.8,-35.0,-99.9,58,22,35,29.95,29.77,12,-561,12,0.00
2012-8-11,66.9,6.4,61.0,49.5,-84.4,-99.9,61,7,53,29.93,29.75,0,-884,0,0.00
2012-8-12,68.5,20.8,50.2,51.4,-43.6,-99.9,76,21,39,29.98,29.89,0,-647,0,0.00
2012-8-13,81.0,52.7,53.2,53.8,16.1,-99.9,63,40,35,29.96,29.81,11,-242,11,0.00
2012-8-14,92.7,70.8,50.7,56.8,47.5,40.5,68,46,25,29.82,29.71,6,0,6,0.00
2012-8-15,95.9,77.0,57.4,53.1,46.1,40.7,62,35,20,29.97,29.70,16,-45,16,0.00
2012-8-16,75.7,62.6,52.9,53.0,47.2,43.0,70,58,44,29.99,29.88,7,0,7,0.00
2012-8-17,82.8,64.2,44.8,55.6,47.7,39.6,83,58,35,29.95,29.78,8,0,8,0.00
2012-8-18,84.0,67.0,54.0,49.3,43.0,-99.9,67,45,29,29.94,29.82,9,-21,9,0.00
2012-8-19,85.1,65.2,45.0,48.5,40.9,33.1,67,43,27,29.92,29.81,8,0,8,0.00
2012-8-20,84.7,54.9,51.1,52.5,22.2,-99.9,67,42,28,29.85,29.77,7,-157,7,0.08
2012-8-21,89.2,39.6,54.1,52.9,-18.2,-99.9,61,27,26,29.89,29.78,86,-538,86,0.00
2012-8-22,92.1,28.9,71.8,52.9,-50.5,-99.9,50,13,25,29.80,29.71,57,-740,57,0.00
2012-8-23,88.3,29.2,63.0,56.2,-47.2,-99.9,69,17,33,29.82,29.71,2,-688,2,0.02
2012-8-24,90.1,65.8,55.6,57.6,34.2,-99.9,65,40,18,29.72,29.61,13,-144,13,0.00
2012-8-25,76.6,30.1,58.8,44.8,-38.4,-99.9,54,17,25,29.88,29.65,0,-587,0,0.00
2012-8-26,80.4,30.6,47.7,44.0,-32.2,-99.9,69,25,25,29.91,29.79,0,-553,0,0.00
2012-8-27,94.8,65.0,55.8,56.3,26.5,-99.9,53,33,23,29.95,29.88,8,-189,8,0.00
2012-8-28,96.8,60.2,60.6,56.7,19.0,-99.9,52,33,25,29.95,29.85,7,-227,7,0.00
2012-8-29,99.7,77.9,59.7,58.1,49.4,42.9,63,39,23,29.88,29.73,19,0,19,0.00
2012-8-30,90.7,77.9,65.7,57.3,48.6,43.9,51,36,27,29.87,29.74,12,0,12,0.00
2012-8-31,93.0,64.7,55.4,53.8,28.7,-99.9,63,36,21,29.88,29.76,0,-146,0,0.00
2012-9-1,71.8,22.6,53.4,52.9,-39.1,-99.9,63,22,33,29.86,29.76,29,-596,29,0.00
2012-9-2,90.1,62.7,60.6,54.8,18.0,-99.9,64,31,27,29.88,29.79,8,-248,8,0.00
2012-9-3,90.0,65.8,59.5,53.5,33.0,-99.9,63,38,22,29.90,29.81,14,-124,14,0.02
2012-9-4,94.1,64.2,62.2,49.7,18.0,-99.9,41,25,18,29.86,29.74,7,-195,7,0.00
2012-9-5,86.5,67.5,45.7,46.7,35.3,25.8,49,32,21,29.96,29.76,57,0,57,0.00
2012-9-6,92.1,72.5,54.5,46.7,36.0,25.2,37,27,17,29.84,29.71,12,0,12,0.00
2012-9-7,71.8,59.1,50.2,50.8,40.3,-99.9,71,53,30,30.08,29.84,22,-31,22,0.00
2012-9-8,81.7,60.0,46.6,50.3,38.1,-99.9,77,51,27,30.08,29.97,8,-34,8,0.00
2012-9-9,88.5,65.7,47.5,48.8,38.8,31.6,55,39,21,30.01,29.78,3,0,3,0.00
2012-9-10,94.1,71.2,49.1,50.8,40.2,31.3,56,35,19,29.80,29.67,8,0,8,0.00
2012-9-11,85.8,67.3,54.9,54.1,45.6,36.2,83,48,30,29.82,29.68,10,0,10,0.14
2012-9-12,57.9,53.4,51.1,53.9,49.6,47.0,88,87,83,30.09,29.81,6,0,6,0.61
2012-9-13,74.1,58.0,46.6,52.9,46.0,37.5,89,68,35,30.18,30.07,4,0,4,0.00
2012-9-14,81.0,55.9,44.4,48.5,26.8,-99.9,72,45,25,30.16,29.99,5,-93,5,0.00
2012-9-15,88.3,45.8,46.0,49.2,-15.4,-99.9,62,19,20,30.00,29.82,5,-447,5,0.00
2012-9-16,90.7,70.7,53.8,49.1,35.0,25.5,43,28,17,29.88,29.74,9,0,9,0.00
2012-9-17,66.0,46.2,46.6,45.8,9.8,-99.9,74,41,35,29.92,29.85,4,-251,4,0.00
2012-9-18,80.4,58.2,43.5,47.9,31.3,-99.9,77,47,27,29.92,29.81,7,-59,7,0.00
2012-9-19,84.4,65.1,47.1,47.0,37.2,30.0,57,37,24,29.93,29.80,6,0,6,0.00
2012-9-20,83.7,64.1,46.8,46.4,37.4,30.3,57,39,23,29.91,29.83,7,0,7,0.00
2012-9-21,81.7,62.1,45.5,45.4,37.3,30.4,57,42,26,29.96,29.86,6,0,6,0.00
2012-9-22,77.7,58.0,42.1,46.5,33.7,-99.9,67,45,31,30.02,29.89,5,-101,5,0.00
2012-9-23,87.1,66.0,42.4,48.9,39.5,33.2,70,42,20,29.92,29.79,6,0,6,0.00
2012-9-24,82.9,69.1,58.8,48.7,42.2,-99.9,54,39,28,29.84,29.68,10,-10,10,0.00
2012-9-25,75.0,47.0,48.0,51.5,12.1,-99.9,85,50,38,29.82,29.71,12,-251,12,0.26
2012-9-26,66.7,50.5,51.6,54.3,33.5,-99.9,88,72,59,29.91,29.78,4,-190,4,0.39
2012-9-27,68.2,53.6,44.1,53.5,43.0,-99.9,89,74,53,29.94,29.86,6,-73,6,0.04
2012-9-28,72.1,56.1,43.7,53.2,45.0,39.5,85,68,42,29.95,29.85,4,0,4,0.02
2012-9-29,79.3,57.1,46.0,53.0,38.8,-99.9,76,57,34,29.89,29.81,3,-35,3,0.00
2012-9-30,76.6,59.0,50.4,50.5,35.2,-99.9,67,48,34,29.94,29.84,5,-49,5,0.02
2012-10-1,75.0,57.8,46.8,48.9,37.0,-99.9,77,53,36,30.03,29.88,9,-48,9,0.02
2012-10-2,85.3,55.4,41.4,50.7,25.8,-99.9,74,44,23,29.88,29.63,2,-125,2,0.00
2012-10-3,86.2,54.5,40.3,44.9,24.5,-99.9,57,41,20,30.04,29.60,14,-52,14,0.00
2012-10-4,48.0,40.1,34.5,30.2,26.6,24.9,72,59,48,30.03,29.90,7,0,7,0.00
2012-10-5,43.2,36.1,30.7,31.5,28.0,23.5,85,73,60,29.99,29.85,8,0,8,0.06
2012-10-6,37.0,34.1,31.8,31.1,28.7,26.4,86,81,67,29.99,29.89,7,0,7,0.02
2012-10-7,58.3,39.7,25.5,32.2,24.7,-99.9,83,60,30,29.93,29.76,58,0,58,0.00
2012-10-8,73.8,48.0,27.7,34.3,23.7,-99.9,69,43,21,29.76,29.58,6,0,6,0.00
2012-10-9,47.5,41.6,31.6,35.6,30.3,19.0,78,65,46,29.90,29.61,8,0,8,0.00
2012-10-10,58.8,41.4,29.1,42.0,32.7,24.6,84,72,52,29.89,29.71,2,0,2,0.00
2012-10-11,68.5,49.2,36.3,42.2,34.6,28.8,75,59,38,29.97,29.71,7,0,7,0.00
2012-10-12,63.5,45.6,32.2,44.0,35.0,-99.9,81,69,47,29.94,29.61,7,0,7,0.00
2012-10-13,65.5,44.1,43.5,47.7,16.6,-99.9,81,51,45,29.86,29.60,6,-146,6,0.10
2012-10-14,74.1,37.8,39.7,45.2,18.5,-99.9,82,53,30,29.98,29.85,8,-154,8,0.00
2012-10-15,82.6,41.9,50.4,41.6,33.6,29.0,71,45,22,29.88,29.63,10,0,10,0.00
2012-10-16,80.6,61.6,45.1,41.8,35.5,28.3,54,39,24,29.67,29.37,21,1,21,0.00
2012-10-17,61.7,51.9,38.8,30.1,16.7,12.1,43,25,18,29.73,29.45,22,2,22,0.00
2012-10-18,66.6,45.6,27.7,29.4,20.8,13.9,58,39,23,29.83,29.73,8,0,8,0.00
2012-10-19,75.9,50.4,29.1,38.1,26.1,16.0,63,41,22,29.83,29.61,9,0,9,0.00
2012-10-20,75.7,56.3,42.4,37.5,27.8,22.7,47,35,18,29.63,29.47,13,0,13,0.00
2012-10-21,72.7,55.5,40.5,38.5,29.8,22.7,62,39,28,29.69,29.51,10,0,10,0.00
2012-10-22,66.0,47.2,31.6,42.2,33.4,25.3,79,60,40,29.69,29.50,4,0,4,0.00
2012-10-23,80.6,56.1,37.0,37.0,29.4,21.3,74,42,16,29.66,29.45,16,1,16,0.00
2012-10-24,51.4,42.2,31.5,37.0,30.1,-99.9,84,64,44,29.79,29.54,8,-7,8,0.18
2012-10-25,37.2,31.5,28.2,30.7,26.8,24.0,86,83,76,29.95,29.78,4,-17,4,0.16
2012-10-26,38.5,30.2,26.8,30.2,25.1,22.5,85,81,71,30.09,29.85,0,-7,0,0.14
2012-10-27,54.7,35.9,24.4,34.1,26.8,20.3,84,71,41,29.85,29.76,8,0,8,0.00
2012-10-28,62.2,35.0,28.8,39.9,7.8,-99.9,81,55,43,29.84,29.72,6,-177,6,0.00
2012-10-29,72.7,50.0,37.2,45.4,32.4,-99.9,75,56,33,29.84,29.78,7,-21,7,0.00
2012-10-30,75.7,52.0,34.2,42.9,33.0,26.5,75,52,25,29.89,29.76,9,0,9,0.00
2012-10-31,74.1,51.4,35.8,41.4,31.7,25.1,66,49,27,29.89,29.82,5,0,5,0.00
2012-11-1,65.5,50.0,38.3,38.8,31.8,26.4,63,50,34,29.86,29.67,8,0,8,0.00
2012-11-2,61.7,46.8,36.0,34.6,28.8,24.1,69,51,35,29.87,29.68,3,0,3,0.00
2012-11-3,63.0,42.2,30.0,38.3,29.4,23.5,79,62,38,29.90,29.83,8,0,8,0.00
2012-11-4,65.3,46.1,31.6,36.0,27.8,-99.9,69,52,29,30.02,29.86,5,0,5,0.00
2012-11-5,66.9,48.5,31.3,39.8,31.6,24.3,78,55,35,30.01,29.81,4,0,4,0.00
2012-11-6,66.0,49.0,37.4,39.1,31.5,25.3,67,52,36,29.97,29.87,5,0,5,0.00
2012-11-7,74.8,41.3,30.0,39.0,10.6,-99.9,69,43,26,29.89,29.67,3,-129,3,0.00
2012-11-8,61.7,45.1,34.0,34.3,26.0,-99.9,71,49,35,29.75,29.57,7,-10,7,0.00
2012-11-9,62.4,41.9,30.6,38.2,29.7,23.5,75,63,40,29.58,29.32,2,0,2,0.00
2012-11-10,44.4,31.8,21.7,32.6,24.2,-99.9,84,77,62,29.58,29.22,8,-14,8,0.08
2012-11-11,38.3,25.4,18.0,23.3,11.9,2.1,82,59,31,29.84,29.57,8,0,8,0.02
2012-11-12,47.5,23.1,15.1,22.5,-19.8,-99.9,60,33,32,29.95,29.83,57,-260,57,0.00
2012-11-13,30.4,1.0,29.8,19.2,-96.1,-99.9,63,3,29,29.99,29.86,6,-949,6,0.00
2012-11-14,47.5,10.8,32.2,30.1,-60.2,-99.9,68,20,44,29.94,29.80,3,-704,3,0.00
2012-11-15,44.8,30.7,26.8,31.5,10.5,-99.9,80,60,57,30.07,29.89,4,-139,4,0.00
2012-11-16,57.6,36.8,21.6,36.0,24.2,-99.9,82,67,43,29.97,29.77,57,-24,57,0.00
2012-11-17,65.5,50.6,36.0,36.2,29.5,-99.9,70,46,33,29.84,29.74,31,-13,31,0.00
2012-11-18,64.6,44.8,31.3,36.2,24.3,-99.9,71,49,28,29.80,29.69,21,-23,21,0.00
2012-11-19,56.5,38.9,30.6,33.2,23.1,-99.9,66,55,37,29.94,29.80,7,-14,7,0.00
2012-11-20,71.2,44.0,27.7,35.9,24.0,18.5,70,48,24,29.93,29.80,8,0,8,0.00
2012-11-21,74.5,54.0,31.1,32.5,20.3,16.3,55,31,15,29.80,29.62,17,2,17,0.00
2012-11-22,58.8,48.1,26.4,31.4,21.8,10.2,52,36,22,30.14,29.63,22,2,22,0.00
2012-11-23,51.4,31.8,17.4,21.7,14.2,7.3,66,50,31,30.14,29.88,7,0,7,0.00
2012-11-24,63.1,47.9,28.6,30.0,21.0,15.1,58,36,22,29.89,29.67,13,1,13,0.00
2012-11-25,66.0,47.5,30.6,25.9,19.5,13.2,55,34,20,29.72,29.52,15,1,15,0.00
2012-11-26,31.6,29.8,23.5,25.2,22.3,15.9,80,73,55,30.02,29.71,3,0,3,0.00
2012-11-27,61.5,36.7,17.8,26.0,15.4,9.6,80,48,19,29.93,29.78,9,0,9,0.00
2012-11-28,46.6,34.1,27.1,19.6,13.7,9.5,50,43,32,29.92,29.76,4,0,4,0.00
2012-11-29,66.7,46.5,27.1,31.7,22.1,11.4,54,39,24,29.79,29.68,12,1,12,0.00
2012-11-30,63.0,44.2,31.3,31.8,23.9,18.6,61,46,29,29.80,29.58,7,0,7,0.00
2012-12-1,68.5,49.2,37.2,33.2,25.6,19.4,53,41,25,29.74,29.58,10,0,10,0.00
2012-12-2,68.9,50.6,32.4,30.1,22.4,16.9,54,35,20,29.74,29.38,31,1,31,0.00
2012-12-3,60.1,50.4,33.3,30.8,18.5,2.7,44,29,15,29.89,29.40,33,2,33,0.00
2012-12-4,51.6,36.9,23.5,20.9,13.3,4.7,47,38,29,30.00,29.85,5,0,5,0.00
2012-12-5,72.3,51.4,37.2,37.5,26.1,17.9,56,39,23,29.86,29.58,15,1,15,0.00
2012-12-6,51.4,40.0,28.2,34.0,27.2,21.9,78,61,42,29.79,29.59,8,0,8,0.00
2012-12-7,53.2,35.0,25.3,29.4,22.3,16.9,81,62,35,29.68,29.54,14,0,14,0.00
2012-12-8,50.5,34.8,21.4,27.0,19.2,8.5,76,55,37,29.63,29.40,17,2,17,0.00
2012-12-9,30.0,21.0,7.2,8.5,0.7,-5.7,58,41,32,29.86,29.62,14,2,14,0.00
2012-12-10,45.0,25.6,8.2,14.3,5.0,-4.0,58,43,24,29.70,29.54,12,1,12,0.00
2012-12-11,45.7,30.2,14.7,20.3,13.8,7.6,74,53,32,29.71,29.50,8,0,8,0.00
2012-12-12,60.1,44.0,32.7,22.0,15.6,10.4,42,33,21,29.63,29.48,22,2,22,0.00
2012-12-13,54.7,36.4,23.0,22.6,14.1,8.3,53,40,27,29.73,29.61,8,0,8,0.00
2012-12-14,47.8,32.5,22.8,19.4,13.4,8.2,54,46,31,29.62,29.29,6,0,6,0.00
2012-12-15,45.1,33.1,24.6,24.8,19.2,11.9,72,57,44,29.48,29.38,4,0,4,0.00
2012-12-16,38.5,29.8,24.1,27.5,20.5,10.2,83,69,48,29.53,29.42,5,0,5,0.00
2012-12-17,52.5,40.4,23.9,22.5,17.9,10.0,56,41,31,29.50,29.32,22,4,22,0.00
2012-12-18,46.4,35.8,27.1,26.4,22.6,19.9,77,60,40,29.53,29.42,7,0,7,0.00
2012-12-19,30.0,21.1,9.1,20.2,10.6,-2.6,77,64,43,29.81,29.44,13,2,13,0.00
2012-12-20,54.1,27.9,6.1,16.4,6.4,-3.3,66,43,21,29.88,29.79,14,1,14,0.00
2012-12-21,56.5,35.1,21.7,22.9,11.8,4.3,52,39,25,29.89,29.76,6,0,6,0.00
2012-12-22,57.6,35.6,24.4,17.5,8.2,2.1,41,33,19,29.77,29.61,9,0,9,0.00
2012-12-23,53.2,39.7,22.8,21.1,11.9,-99.9,55,34,27,29.67,29.55,29,-11,29,0.00
2012-12-24,39.9,27.0,18.5,19.6,14.7,9.3,77,61,43,29.66,29.46,7,0,7,0.00
2012-12-25,21.7,10.3,-2.4,12.9,-1.1,-99.9,77,67,55,29.89,29.66,78,-34,78,0.02
2012-12-26,29.3,13.2,-2.4,15.3,5.3,-9.2,76,71,55,29.71,29.38,8,0,8,0.00
2012-12-27,27.1,17.5,7.0,17.6,10.6,1.3,78,74,66,29.61,29.39,6,0,6,0.00
2012-12-28,36.0,16.6,5.2,19.4,5.6,-2.4,78,63,39,29.79,29.60,8,0,8,0.00
2012-12-29,31.8,14.7,3.7,10.6,2.2,-5.7,68,58,41,29.84,29.62,5,0,5,0.00
2012-12-30,40.6,22.8,8.1,16.6,7.8,-0.7,69,54,34,29.73,29.60,8,0,8,0.00
2012-12-31,29.1,16.9,5.7,17.3,8.6,-1.4,77,70,60,29.74,29.65,8,0,8,0.00
2013-1-1,33.4,17.3,7.0,17.4,7.9,-2.1,78,67,50,29.83,29.71,6,0,6,0.02